When you browse on this site, cookies collect data to enhance your experience and personalize the content and advertising you see.
Visit our Privacy Policy to learn more. By continuing to use the site, you agree to this use of cookies and data.
  • în România
  • Lista ţărilor
  • Pe 7 zile
  • Temperatura apei
  • Hartă satelitară
  • Meteo pe hartă
  • Widget-uri
  • user-avatar
    Intrare

    Meteo pe oră la Sławno

    Astăzi, 20 Mai, Luni

    Timp Temperatura Precipitaţii Vânt Presiune Umiditate
    00:00 +16°C° 0 mm 3 m/s 752 mmHg 96%
    01:00 +16°C° 0 mm 2 m/s 752 mmHg 96%
    02:00 +15°C° 0 mm 2 m/s 752 mmHg 96%
    03:00 +15°C° 0 mm 2 m/s 752 mmHg 96%
    04:00 +15°C° 0 mm 2 m/s 752 mmHg 96%
    05:00 +16°C° 0 mm 2 m/s 752 mmHg 93%
    06:00 +18°C° 0 mm 3 m/s 752 mmHg 89%
    07:00 +19°C° 0 mm 3 m/s 751 mmHg 86%
    08:00 +21°C° 0 mm 3 m/s 751 mmHg 77%
    09:00 +24°C° 0 mm 3 m/s 752 mmHg 69%
    10:00 +25°C° 0 mm 3 m/s 752 mmHg 60%
    11:00 +26°C° 0.2 mm 3 m/s 751 mmHg 59%
    12:00 +26°C° 0.2 mm 4 m/s 751 mmHg 57%
    13:00 +27°C° 0.2 mm 4 m/s 751 mmHg 56%
    14:00 +26°C° 0.6 mm 4 m/s 751 mmHg 62%
    15:00 +26°C° 0.6 mm 4 m/s 750 mmHg 67%
    16:00 +25°C° 0.6 mm 4 m/s 750 mmHg 73%
    17:00 +23°C° 2 mm 4 m/s 750 mmHg 79%
    18:00 +21°C° 2 mm 3 m/s 750 mmHg 84%
    19:00 +20°C° 2 mm 3 m/s 750 mmHg 89%
    20:00 +19°C° 0 mm 3 m/s 750 mmHg 91%
    21:00 +19°C° 0 mm 3 m/s 750 mmHg 92%
    22:00 +18°C° 0 mm 2 m/s 750 mmHg 94%
    23:00 +18°C° 0 mm 2 m/s 750 mmHg 94%

    Mâine, 21 Mai, Marţi

    Timp Temperatura Precipitaţii Vânt Presiune Umiditate
    00:00 +17°C° 0 mm 2 m/s 750 mmHg 95%
    01:00 +17°C° 0 mm 2 m/s 750 mmHg 95%
    02:00 +17°C° 0.1 mm 2 m/s 750 mmHg 96%
    03:00 +17°C° 0.1 mm 2 m/s 750 mmHg 96%
    04:00 +16°C° 0.1 mm 2 m/s 750 mmHg 96%
    05:00 +17°C° 0.7 mm 2 m/s 750 mmHg 94%
    06:00 +18°C° 0.7 mm 2 m/s 750 mmHg 92%
    07:00 +19°C° 0.7 mm 2 m/s 750 mmHg 90%
    08:00 +21°C° 1 mm 2 m/s 750 mmHg 85%
    09:00 +23°C° 1 mm 2 m/s 750 mmHg 80%
    10:00 +24°C° 1 mm 2 m/s 750 mmHg 74%
    11:00 +24°C° 1.5 mm 3 m/s 750 mmHg 73%
    12:00 +25°C° 1.5 mm 3 m/s 750 mmHg 72%
    13:00 +25°C° 1.5 mm 3 m/s 750 mmHg 71%
    14:00 +25°C° 1.6 mm 3 m/s 750 mmHg 73%
    15:00 +25°C° 1.6 mm 3 m/s 750 mmHg 74%
    16:00 +24°C° 1.6 mm 3 m/s 750 mmHg 76%
    17:00 +24°C° 0.1 mm 3 m/s 750 mmHg 79%
    18:00 +22°C° 0.1 mm 3 m/s 750 mmHg 82%
    19:00 +21°C° 0.1 mm 2 m/s 749 mmHg 85%
    20:00 +20°C° 0 mm 2 m/s 750 mmHg 88%
    21:00 +18°C° 0 mm 2 m/s 750 mmHg 91%
    22:00 +17°C° 0 mm 2 m/s 750 mmHg 93%
    23:00 +17°C° 0 mm 3 m/s 750 mmHg 94%

    Poimâine, 22 Mai, Miercuri

    Timp Temperatura Precipitaţii Vânt Presiune Umiditate
    00:00 +16°C° 0 mm 3 m/s 750 mmHg 96%
    01:00 +16°C° 0 mm 3 m/s 749 mmHg 97%
    02:00 +14°C° 0 mm 3 m/s 749 mmHg 97%
    03:00 +14°C° 0 mm 3 m/s 749 mmHg 97%
    04:00 +13°C° 0 mm 3 m/s 749 mmHg 97%
    05:00 +14°C° 0 mm 3 m/s 749 mmHg 93%
    06:00 +14°C° 0 mm 3 m/s 749 mmHg 89%
    07:00 +15°C° 0 mm 4 m/s 749 mmHg 85%
    08:00 +17°C° 0 mm 4 m/s 750 mmHg 81%
    09:00 +18°C° 0 mm 3 m/s 750 mmHg 78%
    10:00 +19°C° 0 mm 3 m/s 750 mmHg 74%
    11:00 +20°C° 0.1 mm 3 m/s 750 mmHg 74%
    12:00 +20°C° 0.1 mm 3 m/s 751 mmHg 75%
    13:00 +20°C° 0.1 mm 3 m/s 751 mmHg 75%
    14:00 +20°C° 0.1 mm 3 m/s 751 mmHg 75%
    15:00 +20°C° 0.1 mm 4 m/s 751 mmHg 75%
    16:00 +21°C° 0.1 mm 4 m/s 751 mmHg 75%
    17:00 +19°C° 0.2 mm 4 m/s 751 mmHg 80%
    18:00 +18°C° 0.2 mm 3 m/s 751 mmHg 84%
    19:00 +17°C° 0.2 mm 3 m/s 752 mmHg 88%
    20:00 +16°C° 0 mm 3 m/s 752 mmHg 90%
    21:00 +14°C° 0 mm 3 m/s 752 mmHg 92%
    22:00 +12°C° 0 mm 3 m/s 753 mmHg 94%
    23:00 +12°C° 0 mm 4 m/s 753 mmHg 94%

    23 Mai, Joi

    Timp Temperatura Precipitaţii Vânt Presiune Umiditate
    00:00 +12°C° 0 mm 4 m/s 753 mmHg 93%
    01:00 +12°C° 0 mm 4 m/s 754 mmHg 93%
    02:00 +12°C° 0.1 mm 5 m/s 754 mmHg 93%
    03:00 +10°C° 0.1 mm 5 m/s 754 mmHg 93%
    04:00 +10°C° 0.1 mm 6 m/s 755 mmHg 93%
    05:00 +9°C° 0.2 mm 6 m/s 755 mmHg 93%
    06:00 +9°C° 0.2 mm 6 m/s 756 mmHg 92%
    07:00 +9°C° 0.2 mm 6 m/s 756 mmHg 92%
    08:00 +9°C° 0 mm 6 m/s 757 mmHg 89%
    09:00 +9°C° 0 mm 6 m/s 757 mmHg 85%
    10:00 +10°C° 0 mm 6 m/s 758 mmHg 82%
    11:00 +10°C° 0 mm 7 m/s 758 mmHg 78%
    12:00 +11°C° 0 mm 7 m/s 758 mmHg 73%
    13:00 +12°C° 0 mm 7 m/s 758 mmHg 69%
    14:00 +12°C° 0 mm 7 m/s 758 mmHg 69%
    15:00 +12°C° 0 mm 7 m/s 758 mmHg 70%
    16:00 +12°C° 0 mm 7 m/s 758 mmHg 71%
    17:00 +11°C° 0 mm 6 m/s 758 mmHg 74%
    18:00 +12°C° 0 mm 5 m/s 758 mmHg 77%
    19:00 +10°C° 0 mm 5 m/s 758 mmHg 80%
    20:00 +10°C° 0 mm 4 m/s 758 mmHg 83%
    21:00 +8°C° 0 mm 4 m/s 758 mmHg 87%
    22:00 +8°C° 0 mm 3 m/s 758 mmHg 91%
    23:00 +8°C° 0 mm 3 m/s 758 mmHg 91%

    24 Mai, Vineri

    Timp Temperatura Precipitaţii Vânt Presiune Umiditate
    00:00 +8°C° 0 mm 3 m/s 758 mmHg 91%
    01:00 +8°C° 0 mm 3 m/s 758 mmHg 90%
    02:00 +8°C° 0 mm 3 m/s 758 mmHg 91%
    03:00 +8°C° 0 mm 3 m/s 757 mmHg 91%
    04:00 +8°C° 0 mm 2 m/s 757 mmHg 91%
    05:00 +9°C° 0 mm 3 m/s 757 mmHg 85%
    06:00 +11°C° 0 mm 3 m/s 757 mmHg 79%
    07:00 +12°C° 0 mm 3 m/s 757 mmHg 73%
    08:00 +13°C° 0 mm 3 m/s 757 mmHg 68%
    09:00 +16°C° 0 mm 3 m/s 757 mmHg 64%
    10:00 +17°C° 0 mm 3 m/s 757 mmHg 59%
    11:00 +17°C° 0 mm 2 m/s 756 mmHg 58%
    12:00 +18°C° 0 mm 2 m/s 756 mmHg 57%
    13:00 +19°C° 0 mm 1 m/s 756 mmHg 56%
    14:00 +20°C° 0 mm 1 m/s 755 mmHg 56%
    15:00 +20°C° 0 mm 1 m/s 755 mmHg 55%
    16:00 +20°C° 0 mm 1 m/s 755 mmHg 55%
    17:00 +19°C° 0 mm 1 m/s 754 mmHg 61%
    18:00 +17°C° 0 mm 2 m/s 754 mmHg 66%
    19:00 +16°C° 0 mm 2 m/s 754 mmHg 72%
    20:00 +15°C° 0 mm 2 m/s 754 mmHg 75%
    21:00 +12°C° 0 mm 3 m/s 754 mmHg 78%
    22:00 +11°C° 0 mm 3 m/s 754 mmHg 81%
    23:00 +11°C° 0 mm 3 m/s 754 mmHg 82%

    25 Mai, Sâmbătă

    Timp Temperatura Precipitaţii Vânt Presiune Umiditate
    00:00 +10°C° 0 mm 3 m/s 754 mmHg 82%
    01:00 +10°C° 0 mm 3 m/s 754 mmHg 83%
    02:00 +10°C° 0 mm 3 m/s 753 mmHg 83%
    03:00 +10°C° 0 mm 3 m/s 753 mmHg 83%
    04:00 +9°C° 0 mm 3 m/s 753 mmHg 82%
    05:00 +11°C° 0 mm 3 m/s 753 mmHg 77%
    06:00 +13°C° 0 mm 3 m/s 753 mmHg 71%
    07:00 +16°C° 0 mm 3 m/s 753 mmHg 65%
    08:00 +18°C° 0 mm 3 m/s 754 mmHg 60%
    09:00 +19°C° 0 mm 3 m/s 754 mmHg 54%
    10:00 +21°C° 0 mm 2 m/s 754 mmHg 49%
    11:00 +21°C° 0 mm 2 m/s 754 mmHg 49%
    12:00 +23°C° 0 mm 2 m/s 754 mmHg 48%
    13:00 +23°C° 0 mm 2 m/s 754 mmHg 48%
    14:00 +22°C° 0 mm 3 m/s 753 mmHg 52%
    15:00 +21°C° 0 mm 3 m/s 753 mmHg 56%
    16:00 +21°C° 0 mm 3 m/s 753 mmHg 60%
    17:00 +19°C° 0 mm 2 m/s 753 mmHg 66%
    18:00 +18°C° 0 mm 2 m/s 753 mmHg 72%
    19:00 +16°C° 0 mm 1 m/s 753 mmHg 78%
    20:00 +16°C° 0 mm 2 m/s 753 mmHg 79%
    21:00 +15°C° 0 mm 2 m/s 754 mmHg 79%
    22:00 +14°C° 0 mm 2 m/s 754 mmHg 80%
    23:00 +14°C° 0 mm 2 m/s 754 mmHg 80%
    Arată mai mult